Date String (YYYY-MM-DD hh:mm:ss) UTC,Instrument flags,Ambient pressure (hPa),Sample flow (lpm),Bypass flow (lpm),Sample temperature (°C),Ambient temperature (°C),ASC tube jacket temperature (°C),LED temperature (°C),Box temperature (°C),Sample RH (%),Span deviation,Mass concentration (μg/m³),Mass concentration (μg/m³),Mass concentration (μg/m³)
DateTimeUTC,F1_M11,P_M11,Q1_M11,Q2_M11,T1_M11,T2_M11,T3_M11,T4_M11,T5_M11,U1_M11,ZSPAN_M11,X2_M11,X0_M11,X1_M11
2022-05-14 10:00:00,,0827.2,4.99,0.00,29.0,27.9,00.0,38.0,30.7,06.9,0000.0,0002.70,0007.04,0001.60
2022-05-14 10:01:00,,0827.2,5.01,0.00,29.0,27.9,00.0,38.0,30.7,06.9,0000.0,0002.70,0007.18,0001.59
2022-05-14 10:02:00,,0827.3,5.00,0.00,29.0,27.8,00.0,38.0,30.7,06.9,0000.0,0002.68,0007.23,0001.58
2022-05-14 10:03:00,,0827.3,4.99,0.00,29.0,27.8,00.0,38.0,30.7,07.0,0000.0,0002.68,0007.25,0001.58
2022-05-14 10:04:00,,0827.3,5.00,0.00,29.0,27.9,00.0,38.0,30.7,07.1,0000.0,0002.74,0007.42,0001.59
2022-05-14 10:05:00,,0827.2,5.00,0.00,29.0,27.8,00.0,38.0,30.7,07.1,0000.0,0002.82,0007.50,0001.59
2022-05-14 10:06:00,,0827.2,5.00,0.00,29.0,27.8,00.0,38.0,30.7,07.1,0000.0,0002.85,0007.61,0001.60
2022-05-14 10:07:00,,0827.5,5.00,0.00,29.0,27.8,00.0,38.0,30.7,07.1,0000.0,0002.84,0007.54,0001.60
2022-05-14 10:08:00,,0827.3,5.00,0.00,29.0,27.8,00.0,38.0,30.7,07.2,0000.0,0002.79,0006.63,0001.60
2022-05-14 10:09:00,,0827.2,4.99,0.00,29.0,27.8,00.0,38.0,30.7,07.2,0000.0,0002.82,0006.50,0001.60
2022-05-14 10:10:00,,0827.2,5.00,0.00,29.0,27.8,00.0,38.0,30.6,07.1,0000.0,0002.83,0007.18,0001.60
2022-05-14 10:11:00,,0827.3,5.00,0.00,28.9,27.7,00.0,38.0,30.6,07.2,0000.0,0002.86,0007.31,0001.61
2022-05-14 10:12:00,,0827.2,5.00,0.00,28.9,27.7,00.0,38.0,30.6,07.1,0000.0,0002.85,0007.22,0001.62
2022-05-14 10:13:00,,0827.3,5.00,0.00,28.9,27.7,00.0,38.0,30.6,07.1,0000.0,0002.87,0007.09,0001.63
2022-05-14 10:14:00,,0827.4,5.00,0.00,28.9,27.7,00.0,38.0,30.6,07.2,0000.0,0002.95,0007.41,0001.65
2022-05-14 10:15:00,,0827.6,5.00,0.00,28.9,27.7,00.0,37.9,30.6,07.1,0000.0,0002.90,0007.43,0001.66
2022-05-14 10:16:00,,0827.6,5.01,0.00,28.9,27.7,00.0,38.0,30.6,07.0,0000.0,0002.91,0007.79,0001.66
2022-05-14 10:17:00,,0827.2,4.98,0.00,28.9,27.7,00.0,37.9,30.5,07.0,0000.0,0002.92,0008.21,0001.67
2022-05-14 10:18:00,,0827.1,5.00,0.00,28.9,27.7,00.0,37.9,30.6,07.2,0000.0,0002.92,0008.16,0001.67
2022-05-14 10:19:00,,0827.1,5.01,0.00,28.9,27.7,00.0,37.9,30.6,07.2,0000.0,0003.03,0008.60,0001.70
2022-05-14 10:20:00,,0827.1,5.00,0.00,28.9,27.8,00.0,37.9,30.6,07.3,0000.0,0003.04,0008.64,0001.71
2022-05-14 10:21:00,,0827.1,4.99,0.00,28.9,27.8,00.0,37.9,30.6,07.3,0000.0,0002.99,0008.25,0001.71
2022-05-14 10:22:00,,0827.1,5.00,0.00,28.9,27.7,00.0,37.9,30.6,07.3,0000.0,0002.98,0008.19,0001.73
2022-05-14 10:23:00,,0827.1,5.00,0.00,28.9,27.7,00.0,37.9,30.6,07.4,0000.0,0002.95,0008.06,0001.74
2022-05-14 10:24:00,,0827.1,5.00,0.00,28.9,27.7,00.0,37.9,30.6,07.5,0000.0,0002.95,0008.05,0001.75
2022-05-14 10:25:00,,0827.1,5.01,0.00,28.9,27.7,00.0,37.9,30.5,07.5,0000.0,0002.95,0008.05,0001.75
2022-05-14 10:26:00,,0827.1,4.99,0.00,28.9,27.7,00.0,37.9,30.5,07.4,0000.0,0002.99,0008.13,0001.76
2022-05-14 10:27:00,,0827.1,5.02,0.00,28.8,27.7,00.0,37.9,30.6,07.4,0000.0,0002.96,0007.68,0001.76
2022-05-14 10:28:00,,0827.1,5.00,0.00,28.8,27.7,00.0,37.9,30.5,07.4,0000.0,0002.97,0007.19,0001.76
2022-05-14 10:29:00,,0827.1,5.00,0.00,28.8,27.7,00.0,37.9,30.5,07.4,0000.0,0003.00,0007.42,0001.76
2022-05-14 10:30:00,,0827.1,5.01,0.00,28.8,27.7,00.0,37.9,30.5,07.5,0000.0,0002.94,0007.66,0001.74
2022-05-14 10:31:00,,0827.1,4.99,0.00,28.8,27.6,00.0,37.9,30.5,07.5,0000.0,0002.92,0007.46,0001.74
2022-05-14 10:32:00,,0827.1,5.01,0.00,28.8,27.7,00.0,37.9,30.5,07.4,0000.0,0003.05,0007.63,0001.75
2022-05-14 10:33:00,,0827.1,5.00,0.00,28.8,27.7,00.0,37.8,30.5,07.4,0000.0,0003.07,0008.57,0001.75
2022-05-14 10:34:00,,0827.1,4.99,0.00,28.8,27.7,00.0,37.8,30.5,07.4,0000.0,0003.13,0008.69,0001.75
2022-05-14 10:35:00,,0827.0,5.01,0.00,28.8,27.7,00.0,37.8,30.5,07.4,0000.0,0003.08,0008.61,0001.73
2022-05-14 10:36:00,,0827.0,5.00,0.00,28.8,27.7,00.0,37.8,30.5,07.4,0000.0,0003.05,0008.36,0001.73
2022-05-14 10:37:00,,0827.0,5.01,0.00,28.8,27.7,00.0,37.8,30.4,07.3,0000.0,0003.04,0008.22,0001.73
2022-05-14 10:38:00,,0827.0,4.99,0.00,28.7,27.7,00.0,37.8,30.4,07.3,0000.0,0003.03,0008.34,0001.74
2022-05-14 10:39:00,,0826.9,5.01,0.00,28.7,27.7,00.0,37.8,30.4,07.3,0000.0,0003.04,0009.17,0001.75
2022-05-14 10:40:00,,0827.0,4.99,0.00,28.7,27.7,00.0,37.8,30.4,07.4,0000.0,0003.09,0009.24,0001.75
2022-05-14 10:41:00,,0826.9,5.00,0.00,28.7,27.7,00.0,37.8,30.3,07.4,0000.0,0003.09,0008.82,0001.75
2022-05-14 10:42:00,,0826.9,5.01,0.00,28.7,27.7,00.0,37.8,30.3,07.5,0000.0,0003.09,0008.84,0001.75
2022-05-14 10:43:00,,0826.8,4.99,0.00,28.7,27.7,00.0,37.8,30.3,07.4,0000.0,0003.08,0008.87,0001.74
2022-05-14 10:44:00,,0826.9,5.01,0.00,28.6,27.6,00.0,37.7,30.3,07.4,0000.0,0003.10,0008.47,0001.71
2022-05-14 10:45:00,,0826.9,5.00,0.00,28.6,27.6,00.0,37.7,30.2,07.4,0000.0,0003.13,0008.22,0001.70
2022-05-14 10:46:00,,0826.9,4.99,0.00,28.6,27.6,00.0,37.7,30.2,07.4,0000.0,0003.15,0008.32,0001.70
2022-05-14 10:47:00,,0826.8,5.00,0.00,28.6,27.6,00.0,37.7,30.3,07.4,0000.0,0003.18,0008.42,0001.71
2022-05-14 10:48:00,,0826.9,5.00,0.00,28.6,27.6,00.0,37.7,30.2,07.4,0000.0,0003.21,0008.52,0001.69
2022-05-14 10:49:00,,0826.9,4.99,0.00,28.5,27.5,00.0,37.6,30.2,07.3,0000.0,0003.22,0008.72,0001.69
2022-05-14 10:50:00,,0826.9,5.00,0.00,28.5,27.5,00.0,37.6,30.1,07.3,0000.0,0003.22,0008.05,0001.67
2022-05-14 10:51:00,,0826.9,5.00,0.00,28.5,27.5,00.0,37.6,30.1,07.5,0000.0,0003.19,0007.64,0001.66
2022-05-14 10:52:00,,0826.9,4.99,0.00,28.5,27.5,00.0,37.6,30.1,07.5,0000.0,0003.21,0007.59,0001.66
2022-05-14 10:53:00,,0826.9,5.00,0.00,28.5,27.5,00.0,37.6,30.0,07.5,0000.0,0003.22,0007.62,0001.66
2022-05-14 10:54:00,,0826.9,4.99,0.00,28.4,27.5,00.0,37.6,30.1,07.5,0000.0,0003.20,0008.04,0001.67
2022-05-14 10:55:00,,0826.9,5.01,0.00,28.4,27.4,00.0,37.5,30.0,07.5,0000.0,0003.17,0007.85,0001.68
2022-05-14 10:56:00,,0826.9,5.00,0.00,28.4,27.5,00.0,37.5,30.1,07.5,0000.0,0003.15,0008.04,0001.69
2022-05-14 10:57:00,,0826.9,5.00,0.00,28.4,27.5,00.0,37.5,30.1,07.6,0000.0,0003.13,0008.28,0001.69
2022-05-14 10:58:00,,0826.9,5.00,0.00,28.4,27.4,00.0,37.5,30.1,07.6,0000.0,0003.13,0008.57,0001.70
2022-05-14 10:59:00,,0826.9,5.01,0.00,28.4,27.4,00.0,37.5,30.1,07.5,0000.0,0003.13,0008.72,0001.72
